This is the latest recevied weather packets stored in our database for station/object K9NZF-1. If no packets are shown the sender has not sent any weather packets the latest 10 day(s).
| Time | Temp. | Humidity | Pressure | Rain* | Wind** | Luminosity | Snow |
|---|---|---|---|---|---|---|---|
| 1777584074 | 13.33° C | 54% | 1014.8 hPa | 0 mm | - | 603 W/m² | - |
| 1777584013 | 13.33° C | 54% | 1014.8 hPa | 0 mm | - | 603 W/m² | - |
| 1777583950 | 13.33° C | 55% | 1014.8 hPa | 0 mm | - | 603 W/m² | - |
| 1777583888 | 13.33° C | 54% | 1014.8 hPa | 0 mm | - | 603 W/m² | - |
| 1777583829 | 13.33° C | 55% | 1014.8 hPa | 0 mm | - | 598 W/m² | - |
| 1777583765 | 13.33° C | 53% | 1014.8 hPa | 0 mm | - | 598 W/m² | - |
| 1777583704 | 13.33° C | 53% | 1014.9 hPa | 0 mm | - | 571 W/m² | - |
| 1777583641 | 13.33° C | 53% | 1014.9 hPa | 0 mm | - | 612 W/m² | - |
| 1777583581 | 13.89° C | 53% | 1014.9 hPa | 0 mm | - | 612 W/m² | - |
| 1777583518 | 13.89° C | 53% | 1014.9 hPa | 0 mm | - | 612 W/m² | - |
| 1777583458 | 13.89° C | 53% | 1014.9 hPa | 0 mm | - | 612 W/m² | - |
| 1777583398 | 13.89° C | 52% | 1014.9 hPa | 0 mm | - | 612 W/m² | - |
| 1777583339 | 13.89° C | 56% | 1014.8 hPa | 0 mm | - | 612 W/m² | - |
| 1777583273 | 13.89° C | 53% | 1014.8 hPa | 0 mm | - | 612 W/m² | - |
| 1777583213 | 13.89° C | 52% | 1014.8 hPa | 0 mm | - | 650 W/m² | - |
| 1777583151 | 13.89° C | 53% | 1014.9 hPa | 0 mm | - | 654 W/m² | - |
| 1777583092 | 13.89° C | 51% | 1014.9 hPa | 0 mm | - | 628 W/m² | - |
| 1777583031 | 13.89° C | 52% | 1014.9 hPa | 0 mm | - | 628 W/m² | - |
| 1777582973 | 13.89° C | 55% | 1014.9 hPa | 0 mm | - | 628 W/m² | - |
| 1777582912 | 13.89° C | 54% | 1014.9 hPa | 0 mm | - | 628 W/m² | - |
| 1777582853 | 13.89° C | 52% | 1014.9 hPa | 0 mm | - | 666 W/m² | - |
| 1777582788 | 13.89° C | 54% | 1014.9 hPa | 0 mm | - | 675 W/m² | - |
| 1777582726 | 13.89° C | 56% | 1015 hPa | 0 mm | - | 679 W/m² | - |
| 1777582665 | 13.89° C | 54% | 1015 hPa | 0 mm | - | 689 W/m² | - |
| 1777582607 | 13.89° C | 54% | 1015 hPa | 0 mm | - | 712 W/m² | - |
* Rain latest hour (hover to see other rain measurements)
** Current wind speed in m/s (hover to see current wind gust speed)